NK0V Weather Reports


Display with metric or nautical units.
time (UTC)temp
F
wind
direction
speed
MPH
gust
MPH
rain 1hr
in
rain 24hr
in
rain mn
in
humidity
%
barometer
mb
20260906171055 77 150 1.0 6.0 0.00 0.05 0.05 90 1017.7
20260906170559 77 116 1.0 7.0 0.00 0.05 0.05 90 1017.5
20260906170126 77 119 2.0 8.0 0.00 0.05 0.05 90 1017.4
20260906165559 77 182 1.0 8.0 0.00 0.05 0.05 90 1017.5
20260906165058 77 202 2.0 8.0 0.00 0.05 0.05 90 1017.6
20260906164602 77 167 1.0 7.0 0.00 0.05 0.05 91 1017.7
20260906164059 77 117 2.0 7.0 0.00 0.05 0.05 91 1017.6
20260906163555 77 166 1.0 6.0 0.00 0.05 0.05 91 1017.6
20260906163101 77 144 1.0 11.0 0.01 0.05 0.05 91 1017.3
20260906162559 76 119 2.0 11.0 0.01 0.05 0.05 91 1017.3
20260906162056 76 81 2.0 7.0 0.01 0.05 0.05 91 1017.2
20260906161606 76 120 2.0 7.0 0.02 0.05 0.05 91 1017.2
20260906161059 76 104 1.0 7.0 0.05 0.05 0.05 91 1017.2
20260906160556 76 105 2.0 5.0 0.05 0.05 0.05 91 1017.1
20260906160104 76 0 2.0 5.0 0.05 0.05 0.05 91 1017.1
20260906155559 76 125 1.0 4.0 0.05 0.05 0.05 91 1017.1
20260906155058 76 131 2.0 6.0 0.05 0.05 0.05 91 1017.3
20260906154602 76 116 2.0 6.0 0.05 0.05 0.05 91 1017.3
20260906154059 76 119 1.0 8.0 0.05 0.05 0.05 91 1017.3
20260906153559 76 117 2.0 8.0 0.05 0.05 0.05 91 1017.2
20260906153101 76 146 2.0 5.0 0.04 0.04 0.04 91 1017.3
20260906152559 76 122 1.0 4.0 0.04 0.04 0.04 91 1017.4
20260906152059 76 0 1.0 7.0 0.04 0.04 0.04 91 1017.3
20260906151611 76 157 1.0 9.0 0.03 0.03 0.03 91 1017.4
20260906151059 76 122 3.0 9.0 0.00 0.00 0.00 91 1017.2
20260906150559 76 137 1.0 4.0 0.00 0.00 0.00 92 1017.4
20260906150107 76 90 1.0 7.0 0.00 0.00 0.00 92 1017.5
20260906145600 76 192 2.0 7.0 0.00 0.00 0.00 92 1017.4
20260906145100 76 139 1.0 4.0 0.00 0.00 0.00 92 1017.3
20260906144601 76 102 1.0 7.0 0.00 0.00 0.00 92 1017.2
20260906144058 76 125 2.0 8.0 0.00 0.00 0.00 92 1017.2
20260906143559 76 109 2.0 8.0 0.00 0.00 0.00 92 1017.1
20260906143130 76 113 2.0 8.0 0.00 0.00 0.00 92 1017.0
20260906142602 75 109 2.0 8.0 0.00 0.00 0.00 92 1017.0
20260906142057 75 157 2.0 8.0 0.00 0.00 0.00 92 1016.9
20260906141604 75 103 2.0 6.0 0.00 0.00 0.00 92 1017.0
20260906141059 75 117 2.0 6.0 0.00 0.00 0.00 92 1017.0
20260906140556 75 118 2.0 7.0 0.00 0.00 0.00 92 1017.0
20260906140108 75 162 2.0 13.0 0.00 0.00 0.00 92 1016.9
20260906135559 75 140 3.0 13.0 0.00 0.00 0.00 92 1016.9
20260906135101 75 121 2.0 8.0 0.00 0.00 0.00 92 1016.8
20260906134613 75 96 3.0 7.0 0.00 0.00 0.00 92 1016.9
20260906134057 75 134 2.0 6.0 0.00 0.00 0.00 92 1017.0
20260906133556 74 109 2.0 9.0 0.00 0.00 0.00 92 1017.0
20260906133108 74 111 2.0 9.0 0.00 0.00 0.00 92 1017.1
20260906132557 74 98 3.0 9.0 0.00 0.00 0.00 92 1017.0
20260906132059 74 118 2.0 6.0 0.00 0.00 0.00 92 1017.0
20260906131558 74 107 2.0 6.0 0.00 0.00 0.00 92 1017.1
20260906131056 74 98 2.0 7.0 0.00 0.00 0.00 92 1017.1
20260906130556 74 78 2.0 7.0 0.00 0.00 0.00 92 1017.2
20260906130115 74 133 2.0 6.0 0.00 0.00 0.00 92 1017.1
20260906125556 74 138 2.0 6.0 0.00 0.11 0.00 92 1017.2
20260906125100 74 144 2.0 6.0 0.00 0.11 0.00 92 1017.2
20260906124602 74 126 2.0 9.0 0.00 0.11 0.00 92 1017.1
20260906124100 74 153 2.0 9.0 0.00 0.11 0.00 92 1017.0
20260906123559 74 96 2.0 7.0 0.00 0.11 0.00 92 1016.8
20260906123137 74 104 3.0 7.0 0.00 0.11 0.00 92 1016.8
20260906122559 74 117 2.0 6.0 0.00 0.11 0.00 92 1016.7
20260906122101 74 88 3.0 8.0 0.00 0.11 0.00 92 1016.6
20260906121604 73 132 2.0 8.0 0.00 0.11 0.00 92 1016.5
20260906121059 73 148 2.0 7.0 0.00 0.11 0.00 92 1016.5
20260906120559 73 129 3.0 7.0 0.00 0.11 0.00 92 1016.3
20260906120109 73 113 2.0 6.0 0.00 0.11 0.00 92 1016.3
20260906115559 73 122 2.0 6.0 0.00 0.22 0.00 92 1016.3
20260906115055 73 122 3.0 8.0 0.00 0.22 0.00 92 1016.3
20260906114610 73 92 3.0 9.0 0.00 0.22 0.00 92 1016.2
20260906114058 73 105 2.0 9.0 0.00 0.22 0.00 92 1016.3
20260906113559 73 119 3.0 8.0 0.00 0.22 0.00 92 1016.3
20260906113101 73 122 3.0 6.0 0.00 0.22 0.00 92 1016.2
20260906112559 73 97 3.0 7.0 0.00 0.22 0.00 92 1016.2
20260906112059 73 98 3.0 7.0 0.00 0.22 0.00 91 1016.1
20260906111601 73 118 3.0 7.0 0.00 0.22 0.00 91 1016.1
20260906111059 73 110 3.0 7.0 0.00 0.22 0.00 91 1016.1
20260906110559 73 127 2.0 6.0 0.00 0.22 0.00 91 1016.1
20260906110100 73 103 2.0 5.0 0.00 0.22 0.00 91 1016.2
20260906105601 73 96 2.0 6.0 0.00 0.24 0.00 91 1016.3
20260906105058 72 108 2.0 6.0 0.00 0.24 0.00 91 1016.2
20260906104600 72 109 2.0 6.0 0.00 0.24 0.00 91 1016.1
20260906104056 72 100 2.0 6.0 0.00 0.24 0.00 91 1016.1
20260906103559 72 115 2.0 7.0 0.00 0.24 0.00 91 1016.1
20260906103101 72 74 2.0 7.0 0.00 0.24 0.00 91 1016.0
20260906102602 72 46 2.0 6.0 0.00 0.24 0.00 91 1016.1
20260906102058 72 128 2.0 6.0 0.00 0.24 0.00 91 1016.0
20260906101601 72 96 2.0 6.0 0.00 0.24 0.00 91 1016.0
20260906101058 72 75 2.0 6.0 0.00 0.24 0.00 90 1016.0
20260906100558 72 97 2.0 6.0 0.00 0.24 0.00 91 1016.1
20260906100106 72 106 2.0 6.0 0.00 0.24 0.00 90 1016.1
20260906095600 72 82 2.0 4.0 0.00 0.24 0.00 90 1016.1
20260906095059 72 96 2.0 4.0 0.00 0.24 0.00 90 1016.1
20260906094608 71 86 1.0 4.0 0.00 0.24 0.00 90 1016.2
20260906094059 71 97 1.0 3.0 0.00 0.24 0.00 90 1016.1
20260906093559 71 77 1.0 4.0 0.00 0.24 0.00 90 1016.1
20260906093102 71 102 1.0 4.0 0.00 0.24 0.00 90 1016.1
20260906092559 71 90 1.0 3.0 0.00 0.24 0.00 90 1016.2
20260906092059 71 0 1.0 4.0 0.00 0.24 0.00 90 1016.3
20260906091608 71 120 1.0 4.0 0.00 0.24 0.00 90 1016.3
20260906091056 71 113 1.0 3.0 0.00 0.24 0.00 90 1016.3
20260906090559 71 122 1.0 4.0 0.00 0.24 0.00 89 1016.3
20260906085558 71 115 2.0 4.0 0.00 0.24 0.00 89 1016.3
20260906085059 71 87 2.0 3.0 0.00 0.24 0.00 89 1016.2
20260906084607 72 112 1.0 3.0 0.00 0.24 0.00 89 1016.2
20260906084056 72 85 1.0 3.0 0.00 0.24 0.00 89 1016.0
20260906083559 72 101 1.0 3.0 0.00 0.24 0.00 89 1015.8
20260906083105 72 80 1.0 3.0 0.00 0.24 0.00 89 1015.7
20260906082555 72 98 2.0 4.0 0.00 0.24 0.00 89 1015.6
20260906082055 72 110 2.0 4.0 0.00 0.24 0.00 89 1015.6
20260906081602 72 96 1.0 4.0 0.00 0.24 0.00 89 1015.5
20260906081055 72 107 1.0 4.0 0.00 0.24 0.00 89 1015.6
20260906080559 72 119 1.0 5.0 0.00 0.24 0.00 89 1015.6
20260906080103 72 138 2.0 5.0 0.00 0.24 0.00 89 1015.5
20260906075600 72 113 2.0 5.0 0.00 0.24 0.00 89 1015.4
20260906075059 72 121 2.0 6.0 0.00 0.24 0.00 89 1015.4
20260906074607 72 117 2.0 6.0 0.00 0.24 0.00 89 1015.5
20260906074056 72 123 3.0 6.0 0.00 0.24 0.00 89 1015.5
20260906073600 72 107 2.0 6.0 0.00 0.24 0.00 89 1015.6
20260906073105 72 104 2.0 6.0 0.00 0.24 0.00 89 1015.6
20260906072559 72 107 2.0 7.0 0.00 0.24 0.00 89 1015.7
20260906072059 72 90 2.0 7.0 0.00 0.24 0.00 89 1015.8
20260906071600 71 101 2.0 6.0 0.00 0.24 0.00 89 1015.8
20260906071058 71 100 2.0 6.0 0.00 0.24 0.00 89 1015.7
20260906070559 71 100 2.0 6.0 0.00 0.24 0.00 88 1015.7
20260906070103 71 90 3.0 6.0 0.00 0.24 0.00 88 1015.7
20260906065555 71 91 2.0 5.0 0.00 0.24 0.00 88 1015.8
20260906065058 71 109 2.0 7.0 0.00 0.24 0.00 88 1015.9
20260906064602 71 100 2.0 7.0 0.00 0.24 0.00 88 1016.1
20260906064057 71 104 2.0 6.0 0.00 0.24 0.00 87 1016.1
20260906063558 71 77 2.0 6.0 0.00 0.24 0.00 87 1016.2
20260906063103 71 80 2.0 6.0 0.00 0.24 0.00 87 1016.1
20260906062558 70 96 1.0 4.0 0.00 0.24 0.00 87 1016.2
20260906062059 70 90 1.0 4.0 0.00 0.24 0.00 86 1016.2
20260906061603 70 90 1.0 6.0 0.00 0.24 0.00 86 1016.2
20260906061058 70 130 2.0 6.0 0.00 0.24 0.00 86 1016.1
20260906060559 70 106 2.0 4.0 0.00 0.24 0.00 86 1016.1
20260906060104 70 96 2.0 4.0 0.00 0.24 0.00 85 1016.1
20260906055559 70 96 1.0 3.0 0.00 0.24 0.00 85 1016.1
20260906055101 70 0 1.0 3.0 0.00 0.24 0.00 85 1016.2
20260906054601 71 123 1.0 3.0 0.00 0.24 0.00 85 1016.1
20260906054059 71 92 1.0 3.0 0.00 0.24 0.00 85 1016.2
20260906053558 71 98 1.0 3.0 0.00 0.24 0.00 85 1016.3
20260906053110 71 88 0.0 3.0 0.00 0.24 0.00 84 1016.3
20260906052559 71 105 0.0 2.0 0.00 0.24 0.00 84 1016.3
20260906052059 71 84 1.0 2.0 0.00 0.24 0.00 84 1016.3
20260906051605 71 90 0.0 2.0 0.00 0.24 0.00 84 1016.3
20260906051058 71 92 1.0 2.0 0.00 0.24 0.00 84 1016.3
20260906050600 71 101 1.0 2.0 0.00 0.24 0.00 85 1016.3
20260906050059 71 101 0.0 2.0 0.00 0.24 0.00 84 1016.3
20260906045559 71 101 1.0 2.0 0.00 0.24 0.24 84 1016.4
20260906045056 71 101 1.0 2.0 0.00 0.24 0.24 84 1016.3
20260906044601 71 115 1.0 3.0 0.00 0.24 0.24 84 1016.3
20260906044058 71 109 1.0 3.0 0.00 0.24 0.24 84 1016.3
20260906043559 71 0 1.0 4.0 0.00 0.24 0.24 84 1016.4
20260906043104 71 124 1.0 4.0 0.00 0.24 0.24 83 1016.4
20260906042602 72 119 1.0 3.0 0.00 0.24 0.24 83 1016.4
20260906042059 72 119 2.0 4.0 0.00 0.24 0.24 83 1016.5
20260906041603 72 95 2.0 4.0 0.00 0.24 0.24 83 1016.4
20260906041059 72 115 1.0 3.0 0.00 0.24 0.24 83 1016.4
20260906040602 72 87 1.0 3.0 0.00 0.24 0.24 82 1016.5
20260906040110 72 87 1.0 3.0 0.00 0.24 0.24 81 1016.5
20260906035558 72 89 1.0 2.0 0.00 0.24 0.24 81 1016.4
20260906035103 72 87 1.0 2.0 0.00 0.24 0.24 81 1016.3
20260906034607 72 101 1.0 2.0 0.00 0.24 0.24 81 1016.4
20260906034059 73 101 1.0 3.0 0.00 0.24 0.24 81 1016.4
20260906033559 73 101 1.0 3.0 0.00 0.24 0.24 81 1016.3
20260906033111 73 105 1.0 3.0 0.00 0.24 0.24 80 1016.3
20260906032558 73 85 1.0 2.0 0.00 0.24 0.24 80 1016.3
20260906032058 73 89 1.0 3.0 0.00 0.24 0.24 80 1016.3
20260906031614 73 100 1.0 3.0 0.00 0.24 0.24 80 1016.3
20260906031102 73 75 1.0 3.0 0.00 0.24 0.24 79 1016.3
20260906030559 74 79 1.0 3.0 0.00 0.24 0.24 79 1016.2
20260906030100 74 101 1.0 3.0 0.00 0.24 0.24 79 1016.2
20260906025559 74 99 1.0 3.0 0.00 0.24 0.24 78 1016.2
20260906025059 74 119 1.0 4.0 0.00 0.24 0.24 78 1016.2
20260906024601 74 107 2.0 6.0 0.00 0.24 0.24 78 1016.2
20260906024102 74 112 2.0 7.0 0.00 0.24 0.24 78 1016.2
20260906023559 74 119 2.0 7.0 0.00 0.24 0.24 77 1016.1
20260906023104 75 109 2.0 4.0 0.00 0.24 0.24 76 1016.1
20260906022555 75 107 1.0 3.0 0.00 0.24 0.24 76 1016.1
20260906022102 75 104 1.0 3.0 0.00 0.24 0.24 75 1016.0
20260906021605 75 103 1.0 3.0 0.00 0.24 0.24 75 1015.9
20260906021058 76 103 1.0 3.0 0.00 0.24 0.24 74 1015.8
20260906020555 76 99 1.0 3.0 0.00 0.24 0.24 74 1015.8
20260906020125 76 93 1.0 3.0 0.00 0.24 0.24 73 1015.7
20260906015556 77 93 1.0 3.0 0.00 0.24 0.24 73 1015.7
20260906015059 77 89 1.0 6.0 0.00 0.24 0.24 72 1015.8
20260906014604 77 95 2.0 6.0 0.00 0.24 0.24 72 1015.8
20260906014059 78 92 2.0 4.0 0.00 0.24 0.24 71 1015.8
20260906013601 78 97 2.0 4.0 0.00 0.24 0.24 71 1015.8
20260906013111 79 104 2.0 4.0 0.00 0.24 0.24 70 1015.8
20260906012559 79 88 1.0 4.0 0.00 0.24 0.24 69 1015.7
20260906012058 80 94 2.0 4.0 0.00 0.24 0.24 68 1015.7
20260906011609 80 98 1.0 3.0 0.00 0.24 0.24 68 1015.7
20260906011055 81 103 1.0 3.0 0.00 0.24 0.24 67 1015.8
20260906010600 81 93 1.0 3.0 0.00 0.24 0.24 66 1015.7
20260906005558 82 126 2.0 4.0 0.00 0.24 0.24 64 1015.6
20260906005059 82 91 1.0 3.0 0.00 0.24 0.24 63 1015.7
20260906004609 83 96 1.0 3.0 0.00 0.24 0.24 63 1015.6
20260906004059 83 103 1.0 3.0 0.00 0.24 0.24 62 1015.7
20260906003558 84 97 2.0 3.0 0.00 0.24 0.24 61 1015.7
20260906003106 84 82 1.0 7.0 0.00 0.24 0.24 60 1015.6
20260906002559 84 103 2.0 8.0 0.00 0.24 0.24 59 1015.5
20260906002055 85 90 3.0 8.0 0.00 0.24 0.24 59 1015.4
20260906001604 85 120 3.0 7.0 0.00 0.24 0.24 59 1015.3
20260906001057 85 107 3.0 7.0 0.00 0.24 0.24 60 1015.1
20260906000559 85 111 3.0 8.0 0.00 0.24 0.24 59 1015.1
20260906000107 86 115 3.0 10.0 0.00 0.24 0.24 59 1015.0
20260905235556 86 111 4.0 10.0 0.00 0.24 0.24 58 1015.0
20260905235059 86 175 3.0 10.0 0.00 0.24 0.24 57 1014.9
20260905234604 86 126 4.0 11.0 0.00 0.24 0.24 56 1015.0
20260905234056 87 107 5.0 11.0 0.00 0.24 0.24 55 1015.0
20260905233559 87 129 4.0 10.0 0.00 0.24 0.24 55 1014.9
20260905233103 87 131 4.0 10.0 0.00 0.24 0.24 54 1014.9
20260905232555 87 128 3.0 8.0 0.00 0.24 0.24 53 1014.8
20260905232059 88 142 2.0 11.0 0.00 0.24 0.24 54 1014.7
20260905231603 88 137 4.0 11.0 0.00 0.24 0.24 54 1014.7
20260905231055 88 112 4.0 14.0 0.00 0.24 0.24 53 1014.7
20260905230556 88 132 5.0 14.0 0.00 0.24 0.24 52 1014.6
20260905225558 89 141 5.0 10.0 0.00 0.24 0.24 50 1014.7
20260905225058 89 130 4.0 8.0 0.00 0.24 0.24 50 1014.5
20260905224603 89 178 3.0 9.0 0.00 0.24 0.24 50 1014.6
20260905224055 89 126 2.0 9.0 0.00 0.24 0.24 49 1014.6
20260905223558 89 169 2.0 9.0 0.00 0.24 0.24 49 1014.8
20260905223106 89 166 1.0 7.0 0.00 0.24 0.24 48 1014.9
20260905222558 89 138 2.0 9.0 0.00 0.24 0.24 49 1014.9
20260905222058 89 189 2.0 9.0 0.00 0.24 0.24 48 1014.9
20260905221603 89 115 3.0 10.0 0.00 0.24 0.24 47 1014.8
20260905221056 89 151 4.0 10.0 0.00 0.24 0.24 47 1014.7
20260905220558 89 155 3.0 9.0 0.00 0.24 0.24 48 1014.6
20260905220106 89 236 2.0 8.0 0.00 0.24 0.24 48 1014.6
20260905215600 89 150 2.0 9.0 0.00 0.24 0.24 48 1014.6
20260905215102 89 142 2.0 9.0 0.00 0.24 0.24 48 1014.5
20260905214604 89 119 3.0 9.0 0.00 0.24 0.24 48 1014.5
20260905214059 89 182 3.0 7.0 0.00 0.24 0.24 47 1014.5
20260905213601 89 167 3.0 7.0 0.00 0.24 0.24 48 1014.3
20260905213111 89 143 2.0 7.0 0.00 0.24 0.24 47 1014.3
20260905212556 89 195 3.0 9.0 0.00 0.24 0.24 48 1014.3
20260905212055 89 129 3.0 9.0 0.00 0.24 0.24 48 1014.5
20260905211601 90 128 4.0 10.0 0.00 0.24 0.24 47 1014.5
20260905211056 90 171 3.0 10.0 0.00 0.24 0.24 48 1014.5
20260905210557 90 100 5.0 12.0 0.00 0.24 0.24 47 1014.4
20260905210123 90 138 4.0 12.0 0.00 0.24 0.24 47 1014.4
20260905205555 90 124 4.0 9.0 0.00 0.24 0.24 47 1014.4
20260905205101 90 90 3.0 11.0 0.00 0.24 0.24 48 1014.4
20260905204606 90 108 4.0 11.0 0.00 0.24 0.24 48 1014.4
20260905204059 90 132 4.0 11.0 0.00 0.24 0.24 47 1014.3
20260905203559 90 94 3.0 10.0 0.00 0.24 0.24 47 1014.3
20260905203108 90 128 4.0 10.0 0.00 0.24 0.24 48 1014.3
20260905202558 90 92 4.0 11.0 0.00 0.24 0.24 49 1014.4
20260905202059 90 67 5.0 11.0 0.00 0.24 0.24 48 1014.5
20260905201603 90 119 4.0 8.0 0.00 0.24 0.24 50 1014.5
20260905201059 89 108 3.0 10.0 0.00 0.24 0.24 49 1014.5
20260905200555 89 132 3.0 10.0 0.00 0.24 0.24 51 1014.5
20260905200112 89 118 4.0 10.0 0.00 0.24 0.24 48 1014.6
20260905195556 89 118 3.0 9.0 0.00 0.24 0.24 49 1014.5
20260905195058 89 88 4.0 9.0 0.00 0.24 0.24 49 1014.5
20260905194616 89 158 3.0 9.0 0.00 0.24 0.24 52 1014.5
20260905194056 88 133 4.0 9.0 0.00 0.24 0.24 55 1014.5
20260905193556 88 92 3.0 7.0 0.00 0.24 0.24 54 1014.5
20260905193101 87 113 3.0 9.0 0.00 0.24 0.24 52 1014.5
20260905192557 87 105 2.0 9.0 0.00 0.24 0.24 53 1014.4
20260905192058 87 101 3.0 10.0 0.00 0.24 0.24 52 1014.4
20260905191609 88 105 3.0 10.0 0.00 0.24 0.24 52 1014.5
20260905191059 88 73 3.0 9.0 0.00 0.24 0.24 51 1014.5
20260905190559 88 90 4.0 9.0 0.00 0.24 0.24 51 1014.5
20260905190114 88 91 3.0 9.0 0.00 0.24 0.24 51 1014.4
20260905185556 88 100 3.0 8.0 0.00 0.24 0.24 54 1014.4
20260905185058 88 111 3.0 10.0 0.00 0.24 0.24 55 1014.5
20260905184623 88 103 3.0 10.0 0.00 0.24 0.24 53 1014.4
20260905184058 87 93 3.0 10.0 0.00 0.24 0.24 53 1014.6
20260905183555 87 51 4.0 11.0 0.00 0.24 0.24 53 1014.7
20260905183105 87 113 3.0 11.0 0.00 0.24 0.24 54 1014.6
20260905182556 86 148 4.0 11.0 0.00 0.24 0.24 55 1014.8
20260905182059 86 99 3.0 10.0 0.00 0.24 0.24 53 1014.7
20260905181602 86 70 3.0 9.0 0.00 0.24 0.24 54 1014.7
20260905181058 86 110 3.0 8.0 0.00 0.24 0.24 52 1014.8
20260905180559 86 97 4.0 8.0 0.00 0.24 0.24 51 1014.8
20260905180103 85 98 4.0 10.0 0.00 0.24 0.24 51 1014.9
20260905175555 86 111 4.0 10.0 0.00 0.24 0.24 50 1014.8
20260905175058 86 92 5.0 14.0 0.00 0.24 0.24 52 1014.8
20260905174608 86 122 6.0 15.0 0.00 0.24 0.24 50 1014.9
20260905174058 85 106 7.0 15.0 0.00 0.24 0.24 51 1014.9
20260905173559 85 123 5.0 11.0 0.00 0.24 0.24 53 1014.9
20260905173110 84 107 4.0 12.0 0.00 0.24 0.24 57 1014.9
20260905172556 83 98 5.0 12.0 0.00 0.24 0.24 58 1014.9
20260905172103 82 127 4.0 10.0 0.00 0.24 0.24 59 1015.0
20260905171621 80 120 4.0 14.0 0.00 0.24 0.24 63 1015.1